| time (UTC) | temp C | wind direction | speed KPH | gust KPH | rain 1hr cm | rain 24hr cm | rain mn cm | humidity % | barometer mb |
| 20260504090117 | 16 | 173 | 16.1 | 20.9 | 0.00 | 0.00 | 0.00 | 79 | 1016.7 |
| 20260504081547 | 17 | 200 | 8.0 | 11.3 | 0.00 | 0.00 | 0.00 | 77 | 1016.9 |
| 20260504081043 | 17 | 212 | 4.8 | 4.8 | 0.00 | 0.00 | 0.00 | 76 | 1017.0 |
| 20260504080540 | 17 | 172 | 12.9 | 14.5 | 0.00 | 0.00 | 0.00 | 76 | 1016.8 |
| 20260504050352 | 18 | 143 | 8.0 | 9.7 | 0.00 | 0.00 | 0.00 | 66 | 1019.0 |
| 20260504045849 | 18 | 203 | 6.4 | 6.4 | 0.00 | 0.00 | 0.00 | 65 | 1019.0 |
| 20260504045344 | 18 | 157 | 9.7 | 14.5 | 0.00 | 0.00 | 0.00 | 65 | 1018.9 |
| 20260504044841 | 18 | 209 | 11.3 | 14.5 | 0.00 | 0.00 | 0.00 | 64 | 1019.1 |
| 20260504044339 | 18 | 188 | 12.9 | 20.9 | 0.00 | 0.00 | 0.00 | 63 | 1019.2 |
| 20260504043836 | 19 | 118 | 6.4 | 11.3 | 0.00 | 0.00 | 0.00 | 63 | 1019.3 |
| 20260504043333 | 19 | 162 | 6.4 | 6.4 | 0.00 | 0.00 | 0.00 | 62 | 1019.1 |
| 20260504042830 | 19 | 140 | 12.9 | 17.7 | 0.00 | 0.00 | 0.00 | 61 | 1019.0 |
| 20260504042326 | 19 | 151 | 8.0 | 11.3 | 0.00 | 0.00 | 0.00 | 61 | 1019.1 |
| 20260504041823 | 19 | 149 | 9.7 | 12.9 | 0.00 | 0.00 | 0.00 | 60 | 1019.2 |
| 20260504041319 | 20 | 163 | 12.9 | 20.9 | 0.00 | 0.00 | 0.00 | 59 | 1019.3 |
| 20260504040815 | 20 | 153 | 8.0 | 11.3 | 0.00 | 0.00 | 0.00 | 58 | 1019.3 |
| 20260504040313 | 20 | 98 | 12.9 | 16.1 | 0.00 | 0.00 | 0.00 | 57 | 1019.2 |
| 20260504035809 | 20 | 154 | 16.1 | 17.7 | 0.00 | 0.00 | 0.00 | 56 | 1019.4 |
| 20260504035306 | 20 | 101 | 9.7 | 14.5 | 0.00 | 0.00 | 0.00 | 56 | 1019.2 |
| 20260504034803 | 20 | 155 | 16.1 | 17.7 | 0.00 | 0.00 | 0.00 | 55 | 1019.2 |
| 20260504034301 | 20 | 133 | 8.0 | 11.3 | 0.00 | 0.00 | 0.00 | 54 | 1019.2 |
| 20260504033758 | 20 | 151 | 6.4 | 6.4 | 0.00 | 0.00 | 0.00 | 54 | 1019.4 |
| 20260504033256 | 20 | 156 | 4.8 | 9.7 | 0.00 | 0.00 | 0.00 | 54 | 1019.0 |
| 20260504032752 | 20 | 114 | 6.4 | 9.7 | 0.00 | 0.00 | 0.00 | 55 | 1019.1 |
| 20260504032249 | 20 | 98 | 4.8 | 4.8 | 0.00 | 0.00 | 0.00 | 55 | 1019.0 |
| 20260504031746 | 20 | 157 | 3.2 | 4.8 | 0.00 | 0.00 | 0.00 | 55 | 1019.0 |
| 20260504031243 | 20 | 148 | 4.8 | 4.8 | 0.00 | 0.00 | 0.00 | 55 | 1019.1 |
| 20260504030739 | 20 | 145 | 4.8 | 4.8 | 0.00 | 0.00 | 0.00 | 55 | 1019.0 |
| 20260504030237 | 20 | 135 | 3.2 | 4.8 | 0.00 | 0.00 | 0.00 | 55 | 1019.0 |
| 20260504025733 | 20 | 117 | 3.2 | 3.2 | 0.00 | 0.00 | 0.00 | 54 | 1019.0 |
| 20260504025230 | 20 | 109 | 3.2 | 3.2 | 0.00 | 0.00 | 0.00 | 54 | 1018.8 |
| 20260504024727 | 20 | 108 | 1.6 | 3.2 | 0.00 | 0.00 | 0.00 | 53 | 1019.2 |
| 20260504024223 | 20 | 153 | 3.2 | 3.2 | 0.00 | 0.00 | 0.00 | 52 | 1018.9 |
| 20260504023720 | 21 | 95 | 3.2 | 4.8 | 0.00 | 0.00 | 0.00 | 51 | 1019.1 |
| 20260504023216 | 21 | 136 | 3.2 | 3.2 | 0.00 | 0.00 | 0.00 | 50 | 1018.8 |
| 20260504022712 | 21 | 155 | 4.8 | 4.8 | 0.00 | 0.00 | 0.00 | 49 | 1018.9 |
| 20260504022208 | 21 | 136 | 3.2 | 4.8 | 0.00 | 0.00 | 0.00 | 49 | 1019.0 |
| 20260504021706 | 21 | 156 | 6.4 | 6.4 | 0.00 | 0.00 | 0.00 | 48 | 1019.2 |
| 20260504021203 | 21 | 156 | 3.2 | 3.2 | 0.00 | 0.00 | 0.00 | 48 | 1019.0 |
| 20260504020700 | 21 | 118 | 4.8 | 6.4 | 0.00 | 0.00 | 0.00 | 48 | 1018.8 |
| 20260504020155 | 21 | 161 | 3.2 | 4.8 | 0.00 | 0.00 | 0.00 | 47 | 1018.8 |
| 20260504015652 | 21 | 167 | 4.8 | 4.8 | 0.00 | 0.00 | 0.00 | 46 | 1018.5 |
| 20260504015149 | 22 | 121 | 1.6 | 3.2 | 0.00 | 0.00 | 0.00 | 46 | 1018.4 |
| 20260504014644 | 22 | 148 | 4.8 | 6.4 | 0.00 | 0.00 | 0.00 | 45 | 1018.4 |
| 20260504014142 | 22 | 153 | 4.8 | 4.8 | 0.00 | 0.00 | 0.00 | 45 | 1018.5 |
| 20260504013640 | 22 | 144 | 4.8 | 4.8 | 0.00 | 0.00 | 0.00 | 44 | 1018.5 |
| 20260504013136 | 22 | 127 | 4.8 | 4.8 | 0.00 | 0.00 | 0.00 | 44 | 1018.3 |
| 20260504012633 | 22 | 147 | 3.2 | 4.8 | 0.00 | 0.00 | 0.00 | 43 | 1018.5 |
| 20260504012132 | 22 | 157 | 4.8 | 4.8 | 0.00 | 0.00 | 0.00 | 43 | 1018.3 |
| 20260504011628 | 22 | 160 | 4.8 | 4.8 | 0.00 | 0.00 | 0.00 | 42 | 1018.6 |
| 20260504011125 | 22 | 143 | 6.4 | 9.7 | 0.00 | 0.00 | 0.00 | 42 | 1018.6 |
| 20260504010620 | 22 | 133 | 8.0 | 9.7 | 0.00 | 0.00 | 0.00 | 41 | 1018.4 |
| 20260504010116 | 23 | 136 | 4.8 | 4.8 | 0.00 | 0.00 | 0.00 | 42 | 1018.5 |
| 20260504005613 | 23 | 179 | 9.7 | 14.5 | 0.00 | 0.00 | 0.00 | 41 | 1018.5 |
| 20260504005110 | 23 | 145 | 6.4 | 6.4 | 0.00 | 0.00 | 0.00 | 41 | 1018.4 |
| 20260504004608 | 23 | 140 | 9.7 | 12.9 | 0.00 | 0.00 | 0.00 | 41 | 1018.4 |
| 20260504004105 | 23 | 191 | 6.4 | 11.3 | 0.00 | 0.00 | 0.00 | 41 | 1018.5 |
| 20260504003601 | 23 | 152 | 9.7 | 11.3 | 0.00 | 0.00 | 0.00 | 41 | 1018.5 |
| 20260504003058 | 23 | 130 | 9.7 | 11.3 | 0.00 | 0.00 | 0.00 | 42 | 1018.5 |
| 20260504002555 | 23 | 121 | 4.8 | 4.8 | 0.00 | 0.00 | 0.00 | 42 | 1018.5 |
| 20260504002053 | 23 | 130 | 6.4 | 6.4 | 0.00 | 0.00 | 0.00 | 42 | 1018.8 |
| 20260504001550 | 23 | 162 | 8.0 | 9.7 | 0.00 | 0.00 | 0.00 | 41 | 1018.7 |
| 20260504001046 | 23 | 186 | 9.7 | 12.9 | 0.00 | 0.00 | 0.00 | 42 | 1018.6 |
| 20260504000543 | 23 | 204 | 3.2 | 4.8 | 0.00 | 0.00 | 0.00 | 43 | 1018.9 |
| 20260504000041 | 23 | 91 | 6.4 | 9.7 | 0.00 | 0.00 | 0.00 | 43 | 1018.9 |
| 20260503235539 | 23 | 167 | 9.7 | 11.3 | 0.00 | 0.00 | 0.00 | 42 | 1019.0 |
| 20260503235036 | 23 | 182 | 12.9 | 17.7 | 0.00 | 0.00 | 0.00 | 41 | 1018.9 |
| 20260503234533 | 24 | 203 | 9.7 | 12.9 | 0.00 | 0.00 | 0.00 | 42 | 1018.9 |
| 20260503234031 | 24 | 115 | 8.0 | 11.3 | 0.00 | 0.00 | 0.00 | 41 | 1018.9 |
| 20260503233527 | 24 | 110 | 3.2 | 4.8 | 0.00 | 0.00 | 0.00 | 42 | 1019.0 |
| 20260503233023 | 24 | 174 | 6.4 | 6.4 | 0.00 | 0.00 | 0.00 | 42 | 1019.0 |
| 20260503232521 | 24 | 178 | 4.8 | 6.4 | 0.00 | 0.00 | 0.00 | 41 | 1019.0 |
| 20260503232018 | 24 | 162 | 6.4 | 6.4 | 0.00 | 0.00 | 0.00 | 42 | 1019.2 |
| 20260503231516 | 24 | 162 | 9.7 | 11.3 | 0.00 | 0.00 | 0.00 | 41 | 1019.1 |
| 20260503231012 | 24 | 136 | 6.4 | 9.7 | 0.00 | 0.00 | 0.00 | 41 | 1018.9 |
| 20260503230509 | 24 | 172 | 9.7 | 11.3 | 0.00 | 0.00 | 0.00 | 41 | 1018.9 |
| 20260503230007 | 25 | 153 | 12.9 | 16.1 | 0.00 | 0.00 | 0.00 | 39 | 1018.8 |
| 20260503225503 | 25 | 182 | 9.7 | 12.9 | 0.00 | 0.00 | 0.00 | 39 | 1019.0 |
| 20260503224958 | 25 | 135 | 17.7 | 20.9 | 0.00 | 0.00 | 0.00 | 38 | 1018.9 |
| 20260503224456 | 25 | 104 | 14.5 | 24.1 | 0.00 | 0.00 | 0.00 | 39 | 1019.0 |
| 20260503223953 | 25 | 164 | 8.0 | 11.3 | 0.00 | 0.00 | 0.00 | 40 | 1019.2 |
| 20260503223451 | 25 | 101 | 4.8 | 9.7 | 0.00 | 0.00 | 0.00 | 40 | 1019.3 |
| 20260503222946 | 25 | 169 | 11.3 | 12.9 | 0.00 | 0.00 | 0.00 | 38 | 1019.3 |
| 20260503222445 | 25 | 119 | 8.0 | 9.7 | 0.00 | 0.00 | 0.00 | 38 | 1019.3 |
| 20260503221943 | 25 | 169 | 16.1 | 17.7 | 0.00 | 0.00 | 0.00 | 39 | 1019.3 |
| 20260503221441 | 25 | 208 | 4.8 | 9.7 | 0.00 | 0.00 | 0.00 | 39 | 1019.5 |
| 20260503220937 | 25 | 194 | 12.9 | 14.5 | 0.00 | 0.00 | 0.00 | 38 | 1019.6 |
| 20260503220434 | 25 | 117 | 9.7 | 14.5 | 0.00 | 0.00 | 0.00 | 39 | 1019.5 |
| 20260503215931 | 25 | 128 | 9.7 | 11.3 | 0.00 | 0.00 | 0.00 | 37 | 1019.6 |
| 20260503215428 | 25 | 153 | 16.1 | 17.7 | 0.00 | 0.00 | 0.00 | 38 | 1019.8 |
| 20260503214926 | 25 | 190 | 11.3 | 16.1 | 0.00 | 0.00 | 0.00 | 36 | 1019.6 |
| 20260503214423 | 25 | 157 | 9.7 | 11.3 | 0.00 | 0.00 | 0.00 | 38 | 1019.8 |
| 20260503213920 | 25 | 153 | 11.3 | 12.9 | 0.00 | 0.00 | 0.00 | 38 | 1020.0 |
| 20260503213418 | 25 | 161 | 6.4 | 9.7 | 0.00 | 0.00 | 0.00 | 38 | 1020.1 |
| 20260503212914 | 25 | 85 | 8.0 | 9.7 | 0.00 | 0.00 | 0.00 | 36 | 1020.3 |
| 20260503212412 | 25 | 139 | 11.3 | 14.5 | 0.00 | 0.00 | 0.00 | 37 | 1020.3 |
| 20260503211910 | 25 | 127 | 9.7 | 12.9 | 0.00 | 0.00 | 0.00 | 39 | 1020.1 |
| 20260503211406 | 25 | 139 | 11.3 | 17.7 | 0.00 | 0.00 | 0.00 | 39 | 1020.3 |
| 20260503210901 | 25 | 166 | 9.7 | 12.9 | 0.00 | 0.00 | 0.00 | 38 | 1020.6 |
| 20260503210359 | 25 | 198 | 16.1 | 22.5 | 0.00 | 0.00 | 0.00 | 39 | 1020.7 |
| 20260503205853 | 25 | 196 | 6.4 | 6.4 | 0.00 | 0.00 | 0.00 | 39 | 1020.8 |
| 20260503205350 | 25 | 118 | 8.0 | 12.9 | 0.00 | 0.00 | 0.00 | 38 | 1020.8 |
| 20260503204847 | 25 | 84 | 14.5 | 17.7 | 0.00 | 0.00 | 0.00 | 39 | 1020.9 |
| 20260503204344 | 25 | 152 | 9.7 | 14.5 | 0.00 | 0.00 | 0.00 | 40 | 1020.9 |
| 20260503203841 | 25 | 191 | 11.3 | 14.5 | 0.00 | 0.00 | 0.00 | 38 | 1021.2 |
| 20260503203339 | 25 | 117 | 14.5 | 16.1 | 0.00 | 0.00 | 0.00 | 38 | 1021.0 |
| 20260503202836 | 25 | 102 | 14.5 | 16.1 | 0.00 | 0.00 | 0.00 | 37 | 1021.3 |
| 20260503202334 | 25 | 127 | 6.4 | 9.7 | 0.00 | 0.00 | 0.00 | 39 | 1021.4 |
| 20260503201832 | 25 | 138 | 17.7 | 20.9 | 0.00 | 0.00 | 0.00 | 37 | 1021.5 |
| 20260503201328 | 25 | 161 | 11.3 | 14.5 | 0.00 | 0.00 | 0.00 | 36 | 1021.6 |
| 20260503200826 | 25 | 136 | 11.3 | 16.1 | 0.00 | 0.00 | 0.00 | 38 | 1021.5 |
| 20260503200321 | 26 | 136 | 17.7 | 22.5 | 0.00 | 0.00 | 0.00 | 34 | 1021.5 |
| 20260503195819 | 25 | 77 | 6.4 | 16.1 | 0.00 | 0.00 | 0.00 | 39 | 1021.7 |
| 20260503195315 | 25 | 234 | 12.9 | 14.5 | 0.00 | 0.00 | 0.00 | 39 | 1021.9 |
| 20260503194813 | 25 | 201 | 11.3 | 14.5 | 0.00 | 0.00 | 0.00 | 38 | 1021.9 |
| 20260503194309 | 25 | 79 | 9.7 | 11.3 | 0.00 | 0.00 | 0.00 | 36 | 1021.9 |
| 20260503193805 | 25 | 164 | 14.5 | 17.7 | 0.00 | 0.00 | 0.00 | 37 | 1022.2 |
| 20260503193301 | 24 | 131 | 19.3 | 22.5 | 0.00 | 0.00 | 0.00 | 37 | 1022.2 |
| 20260503192757 | 25 | 163 | 4.8 | 6.4 | 0.00 | 0.00 | 0.00 | 38 | 1022.1 |
| 20260503192252 | 25 | 134 | 12.9 | 16.1 | 0.00 | 0.00 | 0.00 | 38 | 1022.0 |
| 20260503191749 | 25 | 166 | 6.4 | 6.4 | 0.00 | 0.00 | 0.00 | 40 | 1022.1 |
| 20260503191246 | 24 | 201 | 6.4 | 6.4 | 0.00 | 0.00 | 0.00 | 40 | 1022.4 |
| 20260503190743 | 24 | 218 | 4.8 | 6.4 | 0.00 | 0.00 | 0.00 | 41 | 1022.3 |
| 20260503190240 | 24 | 153 | 9.7 | 14.5 | 0.00 | 0.00 | 0.00 | 39 | 1022.4 |
| 20260503185737 | 24 | 145 | 1.6 | 4.8 | 0.00 | 0.00 | 0.00 | 42 | 1022.4 |
| 20260503185232 | 25 | 183 | 12.9 | 17.7 | 0.00 | 0.00 | 0.00 | 40 | 1022.8 |
| 20260503184727 | 24 | 159 | 14.5 | 16.1 | 0.00 | 0.00 | 0.00 | 38 | 1022.6 |
| 20260503184224 | 24 | 156 | 17.7 | 20.9 | 0.00 | 0.00 | 0.00 | 37 | 1022.8 |
| 20260503183720 | 23 | 106 | 9.7 | 14.5 | 0.00 | 0.00 | 0.00 | 38 | 1022.9 |
| 20260503183218 | 24 | 238 | 4.8 | 9.7 | 0.00 | 0.00 | 0.00 | 39 | 1023.0 |
| 20260503182716 | 24 | 128 | 4.8 | 4.8 | 0.00 | 0.00 | 0.00 | 38 | 1023.1 |
| 20260503182214 | 24 | 136 | 12.9 | 14.5 | 0.00 | 0.00 | 0.00 | 36 | 1023.3 |
| 20260503181710 | 25 | 146 | 16.1 | 22.5 | 0.00 | 0.00 | 0.00 | 37 | 1023.4 |
| 20260503181208 | 24 | 97 | 3.2 | 4.8 | 0.00 | 0.00 | 0.00 | 41 | 1023.2 |
| 20260503180704 | 23 | 170 | 9.7 | 12.9 | 0.00 | 0.00 | 0.00 | 39 | 1023.2 |
| 20260503180203 | 23 | 211 | 9.7 | 12.9 | 0.00 | 0.00 | 0.00 | 41 | 1023.7 |
| 20260503175659 | 23 | 127 | 11.3 | 12.9 | 0.00 | 0.00 | 0.00 | 41 | 1023.7 |
| 20260503175156 | 24 | 158 | 14.5 | 16.1 | 0.00 | 0.00 | 0.00 | 38 | 1023.9 |
| 20260503174652 | 23 | 85 | 3.2 | 4.8 | 0.00 | 0.00 | 0.00 | 44 | 1023.8 |
| 20260503174150 | 23 | 179 | 17.7 | 17.7 | 0.00 | 0.00 | 0.00 | 42 | 1023.8 |
| 20260503173645 | 23 | 195 | 6.4 | 9.7 | 0.00 | 0.00 | 0.00 | 41 | 1024.0 |
| 20260503173142 | 23 | 166 | 12.9 | 14.5 | 0.00 | 0.00 | 0.00 | 40 | 1023.8 |
| 20260503172638 | 23 | 90 | 6.4 | 9.7 | 0.00 | 0.00 | 0.00 | 40 | 1023.8 |
| 20260503172136 | 24 | 112 | 6.4 | 9.7 | 0.00 | 0.00 | 0.00 | 45 | 1024.1 |
| 20260503171632 | 23 | 191 | 12.9 | 16.1 | 0.00 | 0.00 | 0.00 | 40 | 1024.0 |
| 20260503171130 | 23 | 94 | 6.4 | 9.7 | 0.00 | 0.00 | 0.00 | 43 | 1024.1 |
| 20260503170626 | 23 | 173 | 4.8 | 6.4 | 0.00 | 0.00 | 0.00 | 43 | 1024.2 |
| 20260503170123 | 23 | 194 | 9.7 | 11.3 | 0.00 | 0.00 | 0.00 | 41 | 1024.5 |
| 20260503150515 | 21 | 199 | 8.0 | 11.3 | 0.00 | 0.00 | 0.00 | 56 | 1024.6 |
| 20260503131408 | 15 | 221 | 8.0 | 9.7 | 0.00 | 0.00 | 0.00 | 77 | 1024.2 |
| 20260503130905 | 15 | 217 | 4.8 | 6.4 | 0.00 | 0.00 | 0.00 | 78 | 1024.2 |
| 20260503130402 | 15 | 213 | 4.8 | 4.8 | 0.00 | 0.00 | 0.00 | 78 | 1024.4 |
| 20260503110806 | 11 | 247 | 0.0 | 1.6 | 0.00 | 0.00 | 0.00 | 89 | 1023.4 |
| 20260503110303 | 11 | 247 | 0.0 | 0.0 | 0.00 | 0.00 | 0.00 | 89 | 1023.1 |
| 20260503100229 | 12 | 233 | 1.6 | 3.2 | 0.00 | 0.00 | 0.00 | 89 | 1022.8 |